Location: Santa Giusta
(39.8800°N, 8.6069°E)
Time: 16:28:13
(UTC+00:00)

Genesis I - Pass Details

Date: 02 February 2023
Orbit: 466 x 514 km, 64.5° (Epoch: 30 March)

Event Time Altitude Azimuth Distance (km) Brightness Sun altitude
Rises 17:27:42 0° 183° (S) 2,628 7.0 -8.5°
Reaches altitude 10° 17:30:07 10° 170° (S) 1,752 5.9 -8.9°
Maximum altitude 17:33:23 25° 114° (ESE) 1,076 4.4 -9.5°
Enters shadow 17:36:04 13° 63° (ENE) 1,573 5.0 -10.0°
